星链-11544 (STARLINK-11544)

导读

STARLINK-11544是美国SpaceX星链星座的一颗卫星,于2025年2月11日发射入轨,归属美国所有。星链项目旨在构建全球卫星互联网星座,该卫星作为星座组网成员,主要服务于为全球偏远地区、海洋等地面网络覆盖盲区,提供低延迟宽带互联网接入服务,支撑星链全球通信网络的覆盖能力完善。

基本信息
目录编号:
62984
目录名称:
STARLINK-11544
国际标识:
2025-031D
轨道中心:
EARTH
卫星名称:
星链-11544
卫星全名:
星链-11544 (STARLINK-11544)
卫星状态:
在轨 (已飞行488 天)
发射日期:
2025-02-11 UTC
国别 :
美国 (US)
星等 :
--
轨道信息
数据来源 国际轨道数据
星历时间: 2026-06-13T23:08:20+0800
1天前
查看轨道信息
半长轴: 6734.493km
偏心率: 0.0003156
轨道倾角: 42.995°
近地点辐角 280.899°
升交点赤经 142.962°
平近点角 79.152°
近地点: 354.23km
远地点: 358.482km
周期: 91.668分钟
每日圈数: 15.708888
详细信息
固有亮度:
5
最大亮度:
2.5
卫星平台:
Starlink V1.0
覆盖范围:
全球
运营商:
太空探索技术公司
运营商所在国:
美国
制造商(研发单位):
太空探索技术公司
制造商所在国:
美国
使用方式:
暂无
卫星简介
Starlink 计划是 SpaceX 推出的全球卫星互联网项目,通过发射低轨道卫星,为全球尤其是偏远地区提供高速、低延迟的互联网服务。自 2019 年起,Starlink 已部署数千颗卫星,旨在缩小全球数字鸿沟,推动互联网普及。该项目还为军事、航空等行业提供通信支持,带来广泛经济效益。
2D轨道图
3D轨道图
轨道高度分析图
轨道倾角分析图
轨道综合分析图
查看轨道综合分析图